Tracking 18796 objects as of 20-September-2017
HD Live streaming from Space Station
objects crossing your sky now

ASTRA 2B

Track ASTRA 2B now!
ASTRA 2B is classified as:


NORAD ID: 26494
Int'l Code: 2000-054A
Perigee: 35,776.0 km
Apogee: 35,811.0 km
Inclination: 2.4 °
Period: 1,436.1 minutes
Semi major axis: 42164 km
RCS: 17 m2 (large)
Launch date: September 14, 2000
Source: SOCIETE EUROPEENNE DES SATELLITES (SES)
Launch site: FRENCH GUIANA (FRGUI)

Direct-to-home; broadcasting, multimedia; 30 Ku-band for first five years, 28 after; UK and Ireland.
aabbcc
Your satellite tracking list
Your tracking list is empty





NASA's NSSDC Master Catalog

Two Line Element Set (TLE):
1 26494U 00054A   17262.87757652 -.00000182 +00000-0 +00000-0 0  9991
2 26494 002.4014 078.6858 0004147 097.8225 118.7743 01.00272702014871
Source of the keplerian elements: AFSPC